STRAND-1

Last updated on Mon Sep 21 2026 00:03:14 GMT+0000 (Coordinated Universal Time)

1 39090U 13009E 26263.43618285 .00000163 00000+0 69130-4 0 9992 2 39090 98.3970 81.3633 0007735 311.8640 48.1886 14.37208738710745
UTC large
Height (km)
Speed (km/s)
/
Latitude / Longitude
Inclination (degrees)
Orbital Period (minutes)
Azimuth
Elevation
Range (km)
Doppler Factor

Next 0 passes for location: London (51.5072 / 0.1276)

No passes found over London.
STRAND-1